{"data":{"norad_id":55484,"epoch":"2026-05-24T17:51:00.285120Z","epoch_age_seconds":93615,"freshness":"FRESH","line1":"1 55484U 23015AM  26144.74375330  .00000130  00000+0  14273-4 0  9990","line2":"2 55484  43.0051 270.4812 0001599 278.5824  81.4847 15.27575466182220","mean_motion":15.27575466,"eccentricity":0.0001599,"inclination_deg":43.0051,"raan_deg":270.4812,"arg_perigee_deg":278.5824,"mean_anomaly_deg":81.4847,"bstar":1.4273e-5,"rev_number":18222,"period_min":94.26702850699,"perigee_km":481.9655666727,"apogee_km":484.15977832796,"semimajor_km":6861.1996725003,"source":"CELESTRAK","updated_at":"2026-05-25T13:38:17.809594Z"}}